Time,TemperatureF,DewpointF,PressureIn,WindDirection,WindDirectionDegrees,WindSpeedMPH,WindSpeedGustMPH,Humidity,HourlyPrecipIn,Conditions,Clouds,dailyrainin,SolarRadiationWatts/m^2,SoftwareType,DateUTC
2013-01-19 00:01:00,31.8,28.0,29.98,WSW,242,7.0,-999.0,86,-99.99,,,0.00,0,weatherlink.com 1.10,2013-01-19 06:01:00,
2013-01-19 00:16:00,31.9,28.0,29.98,WSW,242,7.0,-999.0,85,-99.99,,,0.00,0,weatherlink.com 1.10,2013-01-19 06:16:00,
2013-01-19 00:31:00,31.6,28.0,29.99,WSW,248,6.0,-999.0,85,-99.99,,,0.00,0,weatherlink.com 1.10,2013-01-19 06:31:00,
2013-01-19 00:46:00,31.3,27.0,29.98,SW,225,8.0,-999.0,85,-99.99,,,0.00,0,weatherlink.com 1.10,2013-01-19 06:46:00,
2013-01-19 01:01:00,31.1,27.0,29.98,SW,229,8.0,-999.0,85,-99.99,,,0.00,0,weatherlink.com 1.10,2013-01-19 07:01:00,
2013-01-19 01:16:00,31.1,27.0,29.98,SSW,200,6.0,-999.0,85,-99.99,,,0.00,0,weatherlink.com 1.10,2013-01-19 07:16:00,
2013-01-19 01:31:00,30.9,27.0,29.97,SSW,205,3.0,-999.0,85,-99.99,,,0.00,0,weatherlink.com 1.10,2013-01-19 07:31:00,
2013-01-19 01:46:00,30.5,27.0,29.97,SSW,202,8.0,-999.0,86,-99.99,,,0.00,0,weatherlink.com 1.10,2013-01-19 07:46:00,
2013-01-19 02:01:00,31.1,27.0,29.97,SW,232,10.0,-999.0,86,-99.99,,,0.00,0,weatherlink.com 1.10,2013-01-19 08:01:00,
2013-01-19 02:16:00,31.5,28.0,29.97,SW,222,8.0,-999.0,85,-99.99,,,0.00,0,weatherlink.com 1.10,2013-01-19 08:16:00,
2013-01-19 02:31:00,31.2,27.0,29.97,SW,227,8.0,-999.0,85,-99.99,,,0.00,0,weatherlink.com 1.10,2013-01-19 08:31:00,
2013-01-19 02:46:00,31.1,27.0,29.98,SW,228,5.0,-999.0,85,-99.99,,,0.00,0,weatherlink.com 1.10,2013-01-19 08:46:00,
2013-01-19 03:02:00,30.7,27.0,29.98,WSW,248,4.0,-999.0,85,-99.99,,,0.00,0,weatherlink.com 1.10,2013-01-19 09:02:00,
2013-01-19 03:16:00,30.4,26.0,29.97,SW,229,7.0,-999.0,85,-99.99,,,0.00,0,weatherlink.com 1.10,2013-01-19 09:16:00,
2013-01-19 03:31:00,30.1,26.0,29.97,WSW,237,4.0,-999.0,86,-99.99,,,0.00,0,weatherlink.com 1.10,2013-01-19 09:31:00,
2013-01-19 03:46:00,29.9,26.0,29.97,West,261,5.0,-999.0,86,-99.99,,,0.00,0,weatherlink.com 1.10,2013-01-19 09:46:00,
2013-01-19 04:01:00,30.0,26.0,29.97,West,260,5.0,-999.0,86,-99.99,,,0.00,0,weatherlink.com 1.10,2013-01-19 10:01:00,
2013-01-19 04:16:00,30.3,26.0,29.97,WSW,254,6.0,-999.0,85,-99.99,,,0.00,0,weatherlink.com 1.10,2013-01-19 10:16:00,
2013-01-19 04:31:00,29.7,25.0,29.97,SW,229,7.0,-999.0,84,-99.99,,,0.00,0,weatherlink.com 1.10,2013-01-19 10:31:00,
2013-01-19 04:46:00,29.3,26.0,29.98,WSW,246,7.0,-999.0,86,-99.99,,,0.00,0,weatherlink.com 1.10,2013-01-19 10:46:00,
2013-01-19 05:01:00,29.5,26.0,29.98,WSW,239,10.0,-999.0,87,-99.99,,,0.00,0,weatherlink.com 1.10,2013-01-19 11:01:00,
2013-01-19 07:01:00,33.2,28.0,30.00,West,264,11.0,-999.0,82,-99.99,,,0.00,0,weatherlink.com 1.10,2013-01-19 13:01:00,
2013-01-19 07:17:00,34.6,28.0,30.01,West,265,11.0,-999.0,78,-99.99,,,0.00,0,weatherlink.com 1.10,2013-01-19 13:17:00,
2013-01-19 07:32:00,35.8,29.0,30.02,WNW,290,14.0,-999.0,75,-99.99,,,0.00,0,weatherlink.com 1.10,2013-01-19 13:32:00,
2013-01-19 07:47:00,36.0,29.0,30.02,West,273,13.0,-999.0,75,-99.99,,,0.00,0,weatherlink.com 1.10,2013-01-19 13:47:00,
2013-01-19 08:02:00,35.9,28.0,30.04,WNW,286,11.0,-999.0,74,-99.99,,,0.00,14,weatherlink.com 1.10,2013-01-19 14:02:00,
2013-01-19 08:17:00,36.4,29.0,30.05,WNW,290,6.0,-999.0,73,-99.99,,,0.00,21,weatherlink.com 1.10,2013-01-19 14:17:00,
2013-01-19 08:32:00,36.6,28.0,30.05,WNW,300,9.0,-999.0,72,-99.99,,,0.00,16,weatherlink.com 1.10,2013-01-19 14:32:00,
2013-01-19 08:47:00,36.9,28.0,30.06,WNW,291,9.0,-999.0,71,-99.99,,,0.00,25,weatherlink.com 1.10,2013-01-19 14:47:00,
2013-01-19 09:02:00,37.9,29.0,30.08,West,275,12.0,-999.0,69,-99.99,,,0.00,188,weatherlink.com 1.10,2013-01-19 15:02:00,
2013-01-19 09:17:00,40.1,29.0,30.09,NW,325,7.0,-999.0,66,-99.99,,,0.00,225,weatherlink.com 1.10,2013-01-19 15:17:00,
2013-01-19 09:32:00,42.0,30.0,30.09,WNW,286,12.0,-999.0,63,-99.99,,,0.00,262,weatherlink.com 1.10,2013-01-19 15:32:00,
2013-01-19 09:46:00,43.8,31.0,30.10,WNW,303,6.0,-999.0,61,-99.99,,,0.00,292,weatherlink.com 1.10,2013-01-19 15:46:00,
2013-01-19 10:01:00,45.4,31.0,30.11,West,265,5.0,-999.0,58,-99.99,,,0.00,325,weatherlink.com 1.10,2013-01-19 16:01:00,
2013-01-19 10:16:00,46.0,31.0,30.11,WNW,296,18.0,-999.0,56,-99.99,,,0.00,355,weatherlink.com 1.10,2013-01-19 16:16:00,
2013-01-19 10:31:00,47.3,32.0,30.12,West,271,12.0,-999.0,56,-99.99,,,0.00,336,weatherlink.com 1.10,2013-01-19 16:31:00,
2013-01-19 10:46:00,48.1,32.0,30.12,NW,322,10.0,-999.0,54,-99.99,,,0.00,243,weatherlink.com 1.10,2013-01-19 16:46:00,
2013-01-19 11:02:00,48.8,32.0,30.12,NW,309,11.0,-999.0,52,-99.99,,,0.00,420,weatherlink.com 1.10,2013-01-19 17:02:00,
2013-01-19 11:17:00,49.2,32.0,30.12,West,276,15.0,-999.0,51,-99.99,,,0.00,425,weatherlink.com 1.10,2013-01-19 17:17:00,
2013-01-19 11:32:00,49.3,32.0,30.12,WNW,289,19.0,-999.0,52,-99.99,,,0.00,462,weatherlink.com 1.10,2013-01-19 17:32:00,
2013-01-19 11:47:00,49.4,32.0,30.11,NW,311,11.0,-999.0,52,-99.99,,,0.00,475,weatherlink.com 1.10,2013-01-19 17:47:00,
2013-01-19 12:17:00,50.7,33.0,30.11,WNW,293,12.0,-999.0,52,-99.99,,,0.00,446,weatherlink.com 1.10,2013-01-19 18:17:00,
2013-01-19 12:33:00,51.3,34.0,30.12,West,281,9.0,-999.0,52,-99.99,,,0.00,418,weatherlink.com 1.10,2013-01-19 18:33:00,
2013-01-19 13:02:00,52.4,35.0,30.11,WSW,238,12.0,-999.0,51,-99.99,,,0.00,387,weatherlink.com 1.10,2013-01-19 19:02:00,
2013-01-19 13:17:00,52.4,34.0,30.11,WNW,296,8.0,-999.0,50,-99.99,,,0.00,250,weatherlink.com 1.10,2013-01-19 19:17:00,
2013-01-19 13:33:00,52.3,34.0,30.11,West,281,5.0,-999.0,50,-99.99,,,0.00,283,weatherlink.com 1.10,2013-01-19 19:33:00,
2013-01-19 13:47:00,52.7,34.0,30.11,NNW,327,6.0,-999.0,50,-99.99,,,0.00,306,weatherlink.com 1.10,2013-01-19 19:47:00,
2013-01-19 14:02:00,53.0,35.0,30.11,WNW,288,4.0,-999.0,50,-99.99,,,0.00,385,weatherlink.com 1.10,2013-01-19 20:02:00,
2013-01-19 14:17:00,53.2,36.0,30.12,West,271,11.0,-999.0,52,-99.99,,,0.00,387,weatherlink.com 1.10,2013-01-19 20:17:00,
2013-01-19 14:33:00,52.9,35.0,30.13,West,277,4.0,-999.0,50,-99.99,,,0.00,364,weatherlink.com 1.10,2013-01-19 20:33:00,
2013-01-19 14:48:00,53.0,35.0,30.13,WNW,283,7.0,-999.0,50,-99.99,,,0.00,269,weatherlink.com 1.10,2013-01-19 20:48:00,
2013-01-19 15:03:00,52.9,35.0,30.14,NNW,337,8.0,-999.0,50,-99.99,,,0.00,149,weatherlink.com 1.10,2013-01-19 21:03:00,
2013-01-19 15:48:00,52.5,34.0,30.16,NNW,327,6.0,-999.0,50,-99.99,,,0.00,65,weatherlink.com 1.10,2013-01-19 21:48:00,
2013-01-19 16:18:00,52.0,35.0,30.18,NW,305,4.0,-999.0,53,-99.99,,,0.00,67,weatherlink.com 1.10,2013-01-19 22:18:00,
2013-01-19 16:33:00,51.2,35.0,30.18,WNW,294,1.0,-999.0,54,-99.99,,,0.00,60,weatherlink.com 1.10,2013-01-19 22:33:00,
2013-01-19 16:48:00,49.6,34.0,30.19,NW,305,1.0,-999.0,56,-99.99,,,0.00,46,weatherlink.com 1.10,2013-01-19 22:48:00,
2013-01-19 17:03:00,47.4,33.0,30.20,WNW,300,4.0,-999.0,58,-99.99,,,0.00,30,weatherlink.com 1.10,2013-01-19 23:03:00,
2013-01-19 17:18:00,45.1,33.0,30.21,NW,325,4.0,-999.0,62,-99.99,,,0.00,16,weatherlink.com 1.10,2013-01-19 23:18:00,
2013-01-19 17:33:00,42.6,31.0,30.21,North,360,4.0,-999.0,65,-99.99,,,0.00,5,weatherlink.com 1.10,2013-01-19 23:33:00,
2013-01-19 17:49:00,41.6,31.0,30.22,NNW,333,5.0,-999.0,66,-99.99,,,0.00,0,weatherlink.com 1.10,2013-01-19 23:49:00,
2013-01-19 18:18:00,40.0,31.0,30.23,NW,323,5.0,-999.0,69,-99.99,,,0.00,0,weatherlink.com 1.10,2013-01-20 00:18:00,
2013-01-19 18:33:00,38.4,30.0,30.24,NNW,331,1.0,-999.0,71,-99.99,,,0.00,0,weatherlink.com 1.10,2013-01-20 00:33:00,
2013-01-19 18:48:00,37.2,29.0,30.25,NNW,329,1.0,-999.0,73,-99.99,,,0.00,0,weatherlink.com 1.10,2013-01-20 00:48:00,
2013-01-19 19:03:00,36.9,29.0,30.26,NW,325,1.0,-999.0,73,-99.99,,,0.00,0,weatherlink.com 1.10,2013-01-20 01:03:00,
2013-01-19 19:18:00,36.5,29.0,30.27,NW,319,5.0,-999.0,74,-99.99,,,0.00,0,weatherlink.com 1.10,2013-01-20 01:18:00,
2013-01-19 19:33:00,36.0,29.0,30.28,North,360,2.0,-999.0,75,-99.99,,,0.00,0,weatherlink.com 1.10,2013-01-20 01:33:00,
2013-01-19 19:48:00,35.5,29.0,30.29,NNW,338,2.0,-999.0,76,-99.99,,,0.00,0,weatherlink.com 1.10,2013-01-20 01:48:00,
2013-01-19 20:04:00,35.1,29.0,30.29,NNW,336,8.0,-999.0,77,-99.99,,,0.00,0,weatherlink.com 1.10,2013-01-20 02:04:00,
2013-01-19 20:19:00,34.8,29.0,30.31,NNW,333,1.0,-999.0,78,-99.99,,,0.00,0,weatherlink.com 1.10,2013-01-20 02:19:00,
2013-01-19 20:34:00,34.4,28.0,30.31,North,355,2.0,-999.0,78,-99.99,,,0.00,0,weatherlink.com 1.10,2013-01-20 02:34:00,
2013-01-19 20:49:00,34.4,28.0,30.32,North,349,4.0,-999.0,78,-99.99,,,0.00,0,weatherlink.com 1.10,2013-01-20 02:49:00,
2013-01-19 21:04:00,34.9,29.0,30.32,North,350,9.0,-999.0,78,-99.99,,,0.00,0,weatherlink.com 1.10,2013-01-20 03:04:00,
2013-01-19 21:34:00,33.7,28.0,30.36,NNE,12,8.0,-999.0,80,-99.99,,,0.00,0,weatherlink.com 1.10,2013-01-20 03:34:00,
2013-01-19 21:49:00,32.5,27.0,30.36,North,355,6.0,-999.0,81,-99.99,,,0.00,0,weatherlink.com 1.10,2013-01-20 03:49:00,
2013-01-19 22:04:00,31.8,26.0,30.37,North,5,9.0,-999.0,78,-99.99,,,0.00,0,weatherlink.com 1.10,2013-01-20 04:04:00,
2013-01-19 22:19:00,31.2,25.0,30.38,NNE,30,5.0,-999.0,78,-99.99,,,0.00,0,weatherlink.com 1.10,2013-01-20 04:19:00,
2013-01-19 22:34:00,30.3,23.0,30.38,North,5,11.0,-999.0,74,-99.99,,,0.00,0,weatherlink.com 1.10,2013-01-20 04:34:00,
2013-01-19 22:49:00,29.5,22.0,30.38,NNW,341,13.0,-999.0,73,-99.99,,,0.00,0,weatherlink.com 1.10,2013-01-20 04:49:00,
2013-01-19 23:04:00,28.7,20.0,30.38,North,360,9.0,-999.0,69,-99.99,,,0.00,0,weatherlink.com 1.10,2013-01-20 05:04:00,
2013-01-19 23:19:00,27.9,17.0,30.39,North,360,10.0,-999.0,65,-99.99,,,0.00,0,weatherlink.com 1.10,2013-01-20 05:19:00,
2013-01-19 23:34:00,27.2,17.0,30.39,NNE,13,9.0,-999.0,66,-99.99,,,0.00,0,weatherlink.com 1.10,2013-01-20 05:34:00,
2013-01-19 23:49:00,26.7,17.0,30.41,North,355,6.0,-999.0,68,-99.99,,,0.00,0,weatherlink.com 1.10,2013-01-20 05:49:00,